Regional Weather Roundup
Issued by NWS Cleveland, OH

Home | Current Version | Previous Version | Text Only | Print | Product List | Glossary Off
Versions: 1 2 3 4 5 6 7 8 9 10 11 12 13 14 15 16 17 18 19 20 21 22 23 24 25 26 27 28 29 30 31 32 33 34 35 36 37 38 39 40 41 42 43 44 45 46 47 48 49 50

000
ASUS41 KCLE 010202
RWRCLE
OHIO REGIONAL WEATHER ROUNDUP
NATIONAL WEATHER SERVICE CLEVELAND, OH
1000 PM EDT TUE JUN 30 2015

NOTE: "FAIR" INDICATES FEW OR NO CLOUDS BELOW 12,000 FEET WITH NO
SIGNIFICANT WEATHER AND/OR OBSTRUCTIONS TO VISIBILITY.

OHZ001>008-015>018-024>027-034-035-043-044-010300-
   NORTHWEST OHIO

CITY           SKY/WX    TMP DP  RH WIND       PRES   REMARKS
DEFIANCE       CLEAR     68  59  73 NW6       29.81R
FINDLAY        CLEAR     69  64  84 W8        29.79R
TOLEDO EXPRESS CLEAR     67  61  81 W5        29.78R
TOLEDO EXEC    CLOUDY    67  62  84 E3        29.79R
LIMA           CLEAR     67  63  87 W8        29.82R
$$

OHZ009>014-019>023-028>033-038-089-010300-
   NORTHEAST OHIO

CITY           SKY/WX    TMP DP  RH WIND       PRES   REMARKS
CLE-HOPKINS    MOCLDY    67  64  90 S8        29.79F
CLE-LAKEFRONT  MOCLDY    69  62  78 S7        29.75F
CUY CO. ARPT   PTCLDY    66  64  94 S6        29.78F
LORAIN-ELYRIA  MOCLDY    67  63  87 SW8       29.78F
ASHTABULA      PTCLDY    63  62  97 S5        29.80S
AKRON-CANTON   PTCLDY    64  61  90 S6        29.82R
WOOSTER        MOCLDY    64  63  96 CALM      29.82R
MANSFIELD      CLOUDY    66  64  93 S8        29.82R
YOUNGSTOWN     CLOUDY    63  62  97 S5        29.82R
$$

OHZ042-051>053-060>062-070>072-077>081-010300-
  SOUTHWEST OHIO

CITY           SKY/WX    TMP DP  RH WIND       PRES   REMARKS
CINC-COVINGTON PTCLDY    64  62  93 SW3       29.86R FOG
CINC-LUNKEN    PTCLDY    62  58  86 CALM      29.86R
HAMILTON       PTCLDY    67  64  90 CALM      29.85S
DAYTON         PTCLDY    69  64  84 SW9       29.85R
WRIGHT-PAT AFB CLEAR     67  62  82 SW8       29.84R
DAYTON GENERAL PTCLDY    66  62  87 SW3       29.85R
WILMINGTON     MOCLDY    63  59  87 SW5       29.85R
$$

OHZ036-037-039>041-045>050-054>059-063>069-073>076-082>088-010300-
  CENTRAL AND SOUTHEAST OHIO

CITY           SKY/WX    TMP DP  RH WIND       PRES   REMARKS
COLUMBUS       LGT RAIN  65  61  87 W5        29.85R
OSU AIRPORT    LGT RAIN  65  62  90 S9        29.83F
BOLTON FIELD   NOT AVBL
RICKENBACK AFB NOT AVBL
NEWARK         MOCLDY    65  60  84 SW3       29.84R
MARION         MOCLDY    68  62  81 S10       29.82R
LANCASTER      CLOUDY    64  58  80 S5        29.85R
ZANESVILLE     NOT AVBL
NEW PHILLY     PTCLDY    64  62  93 S3        29.84R
$$


USA.gov is the U.S. government's official web portal to all federal, state and local government web resources and services.